Theta_e
302 300 297 296 294 296 295 295 296 297 295 294 295 293 293 294 294 294 295 295 295 296 297 298 298 298 299
297 296 296 296 293 293 293 294 294 295 294 293 293 292 293 293 293 293 293 292 293 294 295 296 296 296 297
292 295 295 294 293 293 292 292 293 293 292 293 293 292 292 292 292 291 291 291 292 293 294 294 294 294 295
292 291 292 292 291 290 289 291 290 291 291 291 293 292 291 290 290 289 289 291 292 292 292 292 292 293 293
289 289 288 288 288 290 289 289 289 290 289 289 288 288 288 289 288 288 289 291 291 291 291 291 291 291 292
289 288 288 289 290 289 287 285 285 289 287 286 287 285 286 286 288 288 289 290 290 290 290 290 291 291 291
290 291 290 290 289 287 287 286 285 286 285 283 285 283 285 286 288 287 289 289 289 289 289 290 290 290 290
292 290 290 290 290 289 288 286 285 284 284 280 284 282 283 284 288 286 288 288 289 289 289 289 289 289 289
293 294 294 293 291 288 285 284 282 283 283 281 281 281 282 282 283 286 288 288 288 288 288 289 288 288 286
288 289 289 289 289 287 286 283 282 280 282 280 281 280 278 281 282 282 282 286 287 287 288 288 287 283 283
285 284 284 284 284 284 284 284 281 281 283 281 278 279 278 278 279 280 281 282 281 283 286 286 287 286 281
283 282 282 282 283 284 283 283 282 281 282 281 275 276 276 276 276 279 280 280 281 281 281 284 285 286 286
282 282 283 283 283 282 282 281 281 281 281 280 278 278 278 277 276 277 278 278 280 279 280 280 280 281 279
282 282 282 281 281 282 280 279 278 278 280 280 280 279 274 277 277 275 277 275 279 279 280 280 280 281 280
281 280 280 281 280 281 279 277 274 275 276 278 280 279 278 276 273 274 275 276 278 278 278 277 278 279 280
281 280 279 279 278 278 278 276 273 274 274 275 274 273 273 277 280 275 276 275 277 277 277 275 275 278 279
280 280 280 279 279 277 276 275 275 274 274 273 271 268 265 266 275 281 271 275 275 275 276 275 275 277 278
Wind_Speed
4 6 8 7 6 3 6 5 5 6 4 2 2 1 5 6 8 10 10 10 11 14 16 17 16 17 18
5 6 9 8 7 5 6 5 4 9 4 3 4 2 5 8 9 9 8 10 12 14 15 15 14 16 19
4 3 4 6 7 6 5 4 3 7 4 6 6 5 7 9 8 6 9 11 12 12 12 13 15 18 19
4 7 5 5 5 6 3 3 4 4 3 2 6 7 9 7 6 6 9 11 11 9 12 14 16 18 20
6 7 5 8 9 5 5 5 3 2 2 2 3 2 4 4 5 6 10 9 8 10 14 16 17 19 20
4 9 9 8 8 6 4 4 3 2 2 3 1 3 3 2 5 8 9 8 9 13 16 17 18 19 21
10 9 8 8 7 6 4 3 2 3 1 3 3 3 2 3 7 6 7 8 12 15 16 18 19 20 22
5 6 5 8 6 4 5 5 4 3 1 2 1 3 2 3 7 3 8 12 14 15 17 19 20 20 22
17 16 15 14 10 6 5 5 3 3 1 1 2 3 3 3 1 3 11 13 13 16 19 20 20 21 13
11 13 12 10 8 4 4 2 2 2 2 0 3 3 4 2 2 3 4 11 15 18 20 20 21 9 9
8 6 6 6 5 4 4 3 2 2 2 2 1 2 1 4 4 4 4 7 8 10 17 20 22 21 11
6 5 5 5 4 4 5 5 4 4 3 2 1 0 2 5 5 4 7 6 5 8 8 14 22 22 23
7 5 4 5 5 5 4 4 3 2 2 2 1 2 2 4 6 8 8 5 8 4 7 9 11 11 12
7 6 6 4 4 2 2 2 1 2 2 2 3 3 2 5 5 9 6 4 6 8 9 9 11 9 10
8 6 6 5 4 3 2 1 1 1 0 1 2 3 4 8 6 5 5 6 7 9 10 11 10 10 10
7 6 6 5 5 3 2 1 1 1 0 2 3 4 3 5 11 6 6 6 7 9 9 10 12 11 9
7 6 5 4 6 3 2 1 1 0 1 0 1 1 2 3 4 8 1 8 9 9 8 8 12 14 12
Wind_Direction
149 160 174 181 153 184 137 177 152 156 172 159 167 294 304 325 330 316 319 326 324 321 319 317 316 318 325
151 163 183 179 158 177 173 188 166 167 183 211 197 254 296 307 305 311 319 317 317 314 312 312 318 321 320
129 153 167 162 164 182 190 147 187 137 196 240 206 263 282 294 303 313 318 317 316 310 310 317 321 319 317
125 154 158 155 162 182 170 177 201 194 200 270 213 262 282 281 294 315 312 316 306 313 324 319 317 316 314
144 154 150 170 189 177 190 170 189 108 222 211 216 247 274 263 281 314 315 301 299 308 317 318 316 315 313
157 171 176 174 185 178 160 148 190 137 218 246 191 248 256 237 289 308 299 290 304 311 314 314 314 314 313
167 181 156 165 146 159 173 159 121 128 197 248 165 259 250 304 299 297 282 298 312 315 316 316 315 316 312
112 119 125 142 152 131 132 100 78 91 12 269 120 277 323 290 294 254 276 297 311 314 315 317 319 319 313
99 100 108 114 110 111 134 152 166 153 145 313 340 315 304 290 264 286 312 314 313 314 316 321 321 320 312
106 101 98 103 100 69 129 161 111 120 110 267 359 19 325 303 6 315 311 312 324 321 322 321 322 319 307
110 109 110 100 85 68 52 68 103 78 106 91 11 334 218 305 317 311 314 333 322 321 319 321 316 320 309
121 127 115 106 100 90 74 71 45 51 95 150 142 120 307 298 276 327 310 297 301 311 307 309 309 306 305
140 124 114 112 104 98 88 87 81 77 36 26 22 293 277 265 279 295 316 315 308 301 309 300 304 306 305
130 115 111 130 129 114 115 103 152 155 150 144 255 263 271 272 284 289 299 298 305 301 298 303 298 294 292
127 133 138 132 119 109 85 135 121 115 322 205 239 263 252 264 276 261 289 296 295 304 310 302 296 294 291
131 136 138 134 131 115 122 121 105 94 347 330 349 328 311 276 223 258 280 289 302 302 297 298 301 297 293
130 130 131 134 138 135 125 119 134 153 250 18 296 305 321 299 280 293 353 305 297 297 296 296 291 294 300